SCP
7 7 6 4 4 4 4 3 3 3 3 2 2 2 2 2 2 2 2 2 2 2 3 3 3 2 2 2 1 1 2 2 1 1 1 1 1 2 2 2 2 2 2
7 7 7 6 5 4 3 3 3 3 3 2 3 3 3 2 2 2 2 2 2 2 2 3 3 3 2 2 2 2 2 2 2 1 1 2 2 2 2 2 2 2 2
7 7 8 8 7 5 4 3 3 3 3 3 3 4 4 4 3 2 2 2 2 2 2 2 2 3 3 3 3 3 3 2 2 2 2 2 2 2 2 2 2 2 2
9 9 9 9 9 7 5 4 4 4 3 3 4 4 5 5 4 3 3 2 2 1 1 2 2 2 3 3 3 3 3 3 2 2 2 2 2 2 2 2 2 2 2
11 12 12 11 9 8 6 5 5 5 5 4 4 4 5 5 4 4 3 3 2 2 2 2 2 3 2 2 2 2 3 3 2 2 2 1 1 1 1 2 2 2 2
10 11 12 11 10 9 8 8 8 7 6 5 4 4 4 4 4 4 4 3 3 3 4 4 4 4 3 2 2 1 2 2 2 2 2 1 1 1 1 2 3 3 3
7 7 8 9 10 10 10 11 10 9 8 6 5 4 4 3 3 2 3 4 5 5 5 6 6 5 5 4 3 2 1 1 1 2 2 2 2 2 2 3 3 3 3
6 5 6 7 8 9 10 11 11 10 8 6 5 4 4 4 3 2 2 3 5 5 5 5 6 6 5 4 3 3 2 2 2 2 2 2 2 2 2 2 3 2 2
5 5 5 5 6 7 7 8 9 9 7 6 4 4 4 4 3 1 1 3 4 4 4 4 5 5 4 3 3 3 3 3 2 1 2 2 1 1 1 2 2 2 1
6 5 5 5 6 6 6 7 8 7 6 6 5 4 4 4 2 1 1 2 3 3 3 3 3 2 2 1 1 2 2 2 2 1 1 1 1 1 1 1 2 2 1
7 6 5 5 5 7 8 9 9 7 6 6 6 5 4 4 2 1 1 1 2 2 3 3 2 1 0 0 1 1 1 1 2 2 2 2 2 1 2 2 2 2 2
6 5 6 6 6 8 10 11 11 8 5 5 6 5 5 5 3 2 0 1 2 3 3 3 2 1 0 0 0 0 0 1 1 2 2 2 2 2 2 2 2 2 2
5 5 6 7 8 9 11 12 11 7 5 4 4 5 5 6 5 2 1 0 1 2 3 2 1 0 0 0 0 0 0 1 1 2 2 2 2 2 2 2 2 1 1
5 5 6 6 7 9 11 12 10 7 4 4 4 4 5 6 5 3 1 1 1 1 2 1 1 0 0 1 1 1 1 1 1 2 2 2 2 2 2 2 2 1 1
7 6 6 6 7 9 11 11 9 6 4 4 4 4 5 5 4 2 1 1 1 1 1 1 1 1 1 1 1 1 2 2 2 2 2 2 3 3 2 2 2 2 1
8 7 5 5 6 8 10 10 7 4 3 3 3 3 4 3 2 1 1 1 1 1 1 1 2 2 2 1 1 1 2 2 2 2 2 3 3 3 3 3 2 2 2
7 6 5 4 5 6 8 9 6 3 1 1 1 1 2 1 0 0 0 0 0 0 0 1 2 2 2 1 1 1 1 2 2 3 3 3 3 4 4 3 3 2 2
6 5 4 4 4 4 5 6 5 2 1 0 0 0 0 0 0 0 0 0 0 0 1 1 2 2 1 1 1 1 1 1 2 2 3 3 4 4 4 4 3 2 2
5 4 4 4 3 3 3 3 3 2 2 1 1 0 0 0 0 0 0 0 0 0 1 1 2 1 1 1 1 1 1 1 1 2 3 4 5 5 5 5 4 3 2
4 4 4 4 4 3 3 3 2 2 2 1 1 0 0 0 0 0 0 0 0 0 1 1 1 1 0 0 1 1 1 1 1 1 2 4 5 6 6 5 4 3 2
3 3 3 3 3 3 3 3 2 2 1 1 1 0 0 0 0 0 0 0 0 0 0 0 0 0 0 1 1 1 1 1 1 1 1 2 4 5 5 5 4 3 2
3 3 3 3 3 3 3 2 2 2 1 1 0 0 0 0 0 0 0 0 0 0 0 0 0 0 0 1 1 1 1 1 1 1 1 1 2 2 3 4 3 2 1
3 3 3 2 2 2 2 2 2 1 1 1 0 0 0 0 0 0 0 0 0 0 0 0 0 0 0 1 1 1 1 0 1 1 1 1 1 1 1 2 1 1 1
2 2 2 2 2 2 2 1 1 1 1 0 0 0 0 0 0 0 0 0 0 0 0 0 0 0 0 1 0 0 0 0 0 1 1 1 0 0 1 1 1 1 1
2 1 1 1 1 1 1 1 1 1 0 0 0 0 0 0 0 0 0 0 0 0 0 0 1 1 0 0 0 0 0 0 0 0 0 1 1 0 0 0 0 1 1
1 1 1 1 1 1 0 0 0 0 0 0 0 0 0 0 0 0 1 1 1 0 0 0 0 0 0 0 0 0 0 0 0 0 0 1 1 0 0 0 0 0 1
Wind_Speed
7 7 6 6 6 5 5 5 4 4 4 5 4 4 4 3 3 3 4 3 3 3 3 3 3 2 2 2 2 3 3 3 4 3 2 1 2 3 2 3 3 4 4
7 7 6 5 5 5 5 4 4 4 4 4 4 4 4 4 4 4 4 4 4 4 3 3 3 2 2 3 2 3 3 3 4 4 3 3 3 3 3 5 4 3 4
7 7 7 7 6 6 5 5 4 4 4 4 4 4 4 4 4 5 4 4 5 4 4 4 3 2 3 2 3 3 3 3 3 4 4 3 3 3 3 4 4 4 5
7 7 6 6 6 5 5 5 4 4 4 4 4 4 4 4 4 4 4 4 5 4 4 4 4 4 3 3 3 4 3 4 4 4 4 3 3 3 3 4 4 4 4
6 6 6 5 5 5 5 5 4 4 4 4 4 4 4 4 3 4 4 5 5 5 4 4 4 3 3 3 4 3 4 4 4 4 4 3 3 3 4 4 4 4 4
5 5 5 5 5 5 5 4 4 4 4 4 4 4 4 2 1 2 5 4 5 4 4 4 4 5 4 4 5 5 5 5 5 5 4 4 4 5 4 4 4 4 4
5 4 4 4 4 4 4 4 4 4 4 4 4 4 3 1 1 2 4 5 5 4 4 4 4 3 4 5 5 7 6 6 7 7 6 6 5 4 5 6 5 5 5
4 4 3 3 3 3 3 4 3 3 3 3 3 3 3 2 3 3 5 7 5 4 4 4 4 3 3 4 4 4 5 5 6 6 6 6 5 4 5 6 6 6 6
4 4 3 3 3 3 3 3 3 2 2 3 3 3 3 3 3 4 5 5 4 4 4 4 4 4 1 3 5 5 5 4 4 4 4 4 4 5 5 5 5 5 5
4 3 3 3 3 3 3 3 2 2 3 3 2 3 3 3 3 4 6 5 4 4 4 4 3 3 1 3 5 5 6 5 4 3 4 5 5 5 7 7 6 6 5
3 3 3 3 3 3 3 3 3 3 2 2 2 3 3 2 3 4 4 4 4 4 3 3 2 3 3 4 6 5 5 6 5 5 4 4 3 3 4 4 4 5 6
3 3 3 3 3 3 3 3 3 3 4 4 3 3 2 2 2 3 4 4 5 3 3 2 0 2 3 5 5 4 5 6 5 4 3 3 3 3 2 3 3 4 5
4 4 3 3 3 3 3 4 4 4 4 4 4 3 3 2 3 5 6 6 5 4 3 2 1 3 5 5 5 5 5 5 4 3 3 3 3 3 2 2 3 3 4
4 4 4 4 4 3 3 3 3 3 4 4 4 4 3 2 2 2 3 5 6 5 3 2 4 6 6 4 3 4 4 3 4 4 3 3 3 2 3 3 3 3 4
4 4 4 4 4 3 3 2 3 2 2 3 3 3 3 2 0 2 2 2 2 1 2 3 3 3 3 3 3 3 3 3 3 3 3 3 3 3 3 2 3 3 4
5 4 4 3 4 4 4 3 1 1 0 1 2 3 2 1 1 1 0 1 2 3 4 4 3 3 3 3 3 2 2 2 3 3 4 4 3 3 3 3 3 3 4
4 4 4 4 4 4 4 4 3 2 2 2 3 3 3 2 2 2 2 2 3 4 5 4 3 3 3 3 3 3 2 2 2 3 3 4 4 3 3 3 3 3 3
5 5 5 4 4 4 4 4 4 4 4 3 4 5 5 5 5 4 4 3 3 4 4 3 3 3 2 2 3 3 2 2 2 2 3 3 3 3 3 3 3 4 4
5 4 4 4 4 4 4 4 4 4 4 3 3 4 7 7 6 6 6 4 3 3 3 3 3 2 2 2 2 2 3 2 2 3 2 3 3 3 3 4 3 3 5
4 4 4 4 4 4 4 4 3 4 4 3 3 3 4 4 4 4 5 4 3 3 3 3 2 2 2 2 2 2 2 2 2 3 3 3 3 3 4 4 4 4 4
4 4 6 5 5 4 4 4 3 3 4 3 3 2 1 3 3 3 3 3 2 2 2 2 2 2 2 2 2 2 3 3 2 2 3 3 3 3 4 4 4 4 4
4 3 4 4 4 4 4 4 4 4 3 3 3 3 4 4 3 2 2 2 2 1 1 2 2 1 1 2 2 2 3 3 3 3 3 3 3 4 4 4 4 4 4
3 3 3 3 3 3 4 4 3 3 4 4 3 3 3 3 2 2 2 1 1 1 1 1 1 1 1 2 2 3 2 3 3 4 4 4 4 3 3 3 4 4 4
3 3 3 2 3 3 3 3 3 3 3 3 3 3 2 2 2 1 1 1 1 1 1 1 1 1 2 2 2 2 3 4 5 4 6 5 5 4 3 3 4 4 4
2 2 2 2 2 2 2 2 2 2 2 2 2 2 2 2 2 2 2 1 1 1 1 1 1 1 1 2 3 3 4 5 5 5 5 5 5 4 4 4 4 4 4
2 1 2 2 2 2 2 2 2 2 2 2 2 2 2 2 2 2 2 2 1 1 1 1 0 1 2 1 2 3 2 3 4 5 6 5 5 4 4 4 5 4 4
Wind_Direction
180 180 179 179 181 185 194 194 192 192 188 192 190 193 198 198 198 206 218 207 219 229 238 234 246 269 268 265 253 253 257 259 261 267 265 241 250 263 265 265 249 239 204
172 167 166 167 172 183 188 191 189 191 197 195 195 196 200 198 201 211 218 215 221 228 235 236 239 229 237 266 272 270 268 263 252 263 265 251 240 242 246 255 254 248 244
168 168 164 170 173 178 182 183 185 189 196 198 199 202 205 205 205 211 216 222 227 230 234 235 234 228 236 247 259 263 261 254 244 251 255 252 248 242 250 250 247 251 251
168 169 168 171 170 171 177 183 186 187 191 197 205 212 212 213 212 213 215 228 232 231 234 237 235 231 233 240 239 248 260 264 248 248 248 246 247 245 254 257 254 240 251
168 170 168 171 171 173 179 185 188 192 195 200 207 213 218 217 219 228 223 226 233 233 234 237 235 245 275 269 268 258 253 255 254 249 251 252 249 252 254 260 267 262 251
167 169 166 173 175 180 182 183 185 190 197 204 213 215 224 235 122 272 267 243 236 235 236 236 229 219 222 236 267 279 278 261 264 264 256 258 259 260 264 264 267 266 262
164 162 164 173 174 179 184 181 184 191 201 210 214 218 223 214 165 223 259 259 250 248 246 246 252 234 228 237 232 233 248 256 262 270 271 272 271 267 265 262 259 267 275
161 162 169 175 170 171 181 182 183 192 201 207 216 219 221 203 180 214 246 243 246 242 242 243 251 255 255 269 258 252 249 244 246 249 264 272 279 279 264 263 266 258 256
168 172 175 178 170 172 180 182 183 190 204 213 223 227 227 208 187 211 236 236 233 238 240 241 247 246 266 281 259 260 261 254 235 241 274 279 284 275 268 262 255 255 260
183 185 182 181 178 181 185 187 187 191 203 214 215 231 234 228 184 209 233 237 232 235 229 224 220 246 232 256 258 261 261 263 263 240 231 239 241 235 229 242 258 261 266
187 184 183 187 192 193 191 195 197 202 203 224 229 234 234 242 191 192 225 249 244 242 242 238 213 166 210 241 260 265 273 279 261 251 242 240 241 241 240 237 254 268 271
185 186 188 197 209 191 193 202 205 209 209 216 219 231 228 216 212 179 193 238 286 263 262 267 235 162 215 244 252 266 268 269 259 256 255 260 264 265 274 275 268 272 278
184 191 195 198 203 200 201 206 206 209 226 226 223 227 227 218 181 175 192 214 241 257 276 339 310 225 230 232 226 235 248 254 260 262 267 273 281 289 283 265 253 253 259
191 196 194 198 199 193 216 222 227 221 227 234 232 235 234 222 229 202 201 202 205 218 239 205 204 223 236 248 227 220 240 261 271 267 270 280 285 272 262 263 263 258 264
199 203 203 202 198 196 204 229 240 246 275 267 256 249 247 235 64 32 307 279 290 303 269 240 238 233 236 236 237 240 250 252 259 270 275 275 273 273 274 273 267 266 267
203 207 211 210 204 205 196 191 88 295 133 235 277 286 297 6 107 117 227 270 275 278 258 244 243 246 252 258 259 252 252 268 276 277 274 272 271 273 278 276 267 269 273
210 213 218 214 210 214 213 213 202 185 174 208 223 224 237 255 252 237 234 232 243 230 238 247 252 258 260 264 271 274 274 271 275 275 278 279 277 274 274 274 272 276 278
215 210 222 221 221 222 223 225 222 221 209 202 199 202 205 213 227 235 229 228 223 217 242 253 257 260 263 267 273 277 277 275 270 274 277 281 282 281 277 274 268 277 281
222 218 222 230 231 227 226 230 231 227 225 217 209 186 193 196 205 216 216 237 238 234 237 249 258 266 274 272 271 278 280 281 291 291 285 280 276 275 276 274 271 265 273
225 219 227 231 231 228 227 230 235 233 226 219 224 222 186 199 212 200 208 225 236 239 245 252 258 266 275 283 279 275 279 281 278 278 283 278 279 275 270 273 278 274 273
233 215 211 223 227 226 228 228 230 236 230 222 226 204 224 235 233 224 222 224 235 240 248 258 256 254 268 274 279 282 279 278 282 285 286 279 275 274 273 270 270 276 284
236 231 222 225 224 221 223 225 223 219 220 222 222 180 173 226 233 231 230 237 246 245 254 263 268 268 281 291 283 274 281 288 291 287 280 276 270 271 274 277 284 291 292
232 228 221 221 222 211 218 222 218 216 214 219 219 211 202 216 215 216 224 224 230 230 248 257 266 284 314 313 307 296 294 304 301 291 282 277 275 275 280 286 289 290 295
228 227 220 213 218 218 216 211 211 217 217 218 218 216 216 208 211 208 230 231 217 220 243 254 263 312 322 311 308 328 352 331 307 293 291 286 282 284 284 282 285 291 290
233 233 227 215 218 220 219 214 209 220 224 219 218 225 224 207 198 197 205 215 222 214 225 235 246 286 312 315 330 354 6 351 331 317 296 285 285 286 288 282 283 287 289
226 223 228 224 212 211 214 216 214 216 219 218 220 226 228 216 207 208 209 212 216 207 215 210 220 286 301 321 2 350 346 342 327 312 295 291 294 296 296 284 283 281 283